IRIDIUM 138

Last updated on Sun Jun 21 2026 00:03:14 GMT+0000 (Coordinated Universal Time)

1 43071U 17083B 26171.45605525 .00000040 00000+0 73251-5 0 9999 2 43071 86.3981 320.3442 0002295 86.7945 273.3514 14.34217598444604
UTC large
Height (km)
Speed (km/s)
/
Latitude / Longitude
Inclination (degrees)
Orbital Period (minutes)
Azimuth
Elevation
Range (km)
Doppler Factor

Next 0 passes for location: London (51.5072 / 0.1276)

No passes found over London.
IRIDIUM 138